Voltar ao catálogo

ONEWEB-0697

AtivoComunicaçõesPO
NORAD 61603·PAYLOAD·🇬🇧 United Kingdom

Lançado Oct 20, 2024 de Vandenberg Space Force Base

Loading…

Próximas Passagens (próximas 24 horas)

TLE

AtualizadoSource: CelesTrak SupGP

Época: Sep 14, 2026, 14:14 UTC

1 61603C 24188K   26257.59323333  .00000307  00000+0  86860-3 0  2579
2 61603  87.8979   3.2910 0001162  84.3203  33.8877 13.11419511    15

Acompanhe ONEWEB-0697 em tempo real com AllMySat

Download on the App Store